Regional Weather Roundup
Issued by NWS Newport/Morehead, NC

Current Version | Previous Version | Graphics & Text | Print | Product List | Glossary Off
Versions: 1 2 3 4 5 6 7 8 9 10 11 12 13 14 15 16 17 18 19 20 21 22 23 24 25 26 27 28 29 30 31 32 33 34 35 36 37 38 39 40 41 42 43 44 45 46 47 48 49 50

000
ASUS42 KMHX 211710
RWRMHX
WEATHER ROUNDUP FOR EASTERN NORTH CAROLINA
NATIONAL WEATHER SERVICE NEWPORT/MOREHEAD CITY NC
100 PM EDT TUE OCT 21 2014

NOTE: "FAIR" INDICATES FEW OR NO CLOUDS BELOW 12,000 FEET
WITH NO SIGNIFICANT WEATHER AND/OR OBSTRUCTIONS TO VISIBILITY

NCZ015>017-031-032-045>047-102-103-211800-
NORTH COAST

CITY           SKY/WX    TMP DP  RH WIND       PRES   REMARKS
EDENTON        SUNNY     73  55  54 W5        29.87F
ELIZABETH CITY SUNNY     75  54  47 SW13      29.85F
KITTY HAWK     SUNNY     72  54  53 W6        29.85F
MANTEO         SUNNY     71  55  56 CALM      29.87F

$$

NCZ045>047-081-094-103-104-211800-
CENTRAL COAST

CITY           SKY/WX    TMP DP  RH WIND       PRES   REMARKS
FRISCO         SUNNY     71  60  68 W7        29.89F
SWANQUARTER    NOT AVBL

$$

NCZ095-097-098-100-101-211800-
SOUTHERN COAST

CITY           SKY/WX    TMP DP  RH WIND       PRES   REMARKS
BEAUFORT       MOSUNNY   74  57  55 SW8       29.89F
CEDAR ISLAND   NOT AVBL
JACKSONVILLE   SUNNY     75  51  43 W8        29.88F
PINEY ISLAND   SUNNY     75  52  44 W10       29.88F
WILMINGTON     SUNNY     76  52  43 W9        29.89F


$$

NCZ011>013-027>030-043-044-078>080-089-090>093-098-211800-
COASTAL PLAIN

CITY           SKY/WX    TMP DP  RH WIND       PRES   REMARKS
AHOSKIE        SUNNY     70  51  50 SW3       29.87F
CLINTON        SUNNY     73  56  55 W6        29.89F
ELIZABETHTOWN  SUNNY     73  50  44 NW10      29.90F
GOLDSBORO      SUNNY     73  59  61 W5        29.86F
GREENVILLE     SUNNY     73  54  49 W9        29.90F
HAVELOCK       MOSUNNY   76  54  46 W8        29.89F
KENANSVILLE    SUNNY     74  51  44 SW9       29.89F
KINSTON        MOSUNNY   73  54  49 W8        29.88F
NEW BERN       SUNNY     77  53  43 SW7       29.88F
RICHLANDS      SUNNY     75  52  43 SW6       29.89F
ROCKY MOUNT    SUNNY     72  50  45 W6        29.88F
WASHINGTON     SUNNY     73  53  50 W6        29.88F
WHITEVILLE     SUNNY     75  52  44 SW9       29.89F

$$

AMZ130-135-150-152-154-156-158-170-250-252-270-ANZ085-086-088-633-658-670-211800-
MARINE OBSERVATIONS

STATION/POSITION TIME  TEMP    WIND        PRES    WAVE   SWELL
                       AIR SEA DIR/SP/G            HT/PER HT/PER
                 (UTC) (F)     (DEG/KT/KT) (MB)    (FT/S) (FT/S)
CHESAPEAKE LIGHT 1600   69     240/  7/  7 1011.9
64 E VA BEACH    1700   68 69  250/  8/ 10 1010.7    3/ 5   2/ 5
DUCK             1700   69 69  230/  8/ 10 1010.6
2 E DUCK         1700                        N/A     2/10
10 NE DUCK       1700      71                N/A     2/10
OREGON INLET     1700   69 66  190/  4/  6 1011.6
13E OREGON INLT  1700      74                N/A     2/10   2/11
HATTERAS CG      1700   70 71  260/  6/  8 1012.6
DIAMOND BUOY     1700   71     250/ 10/ 12 1012.5    3/10   2/10
17 S OCRACOKE    1600          VRB  4/  6  1013.1
CAPE LOOKOUT     1600   72     290/  5/  7 1012.9
BEAUFORT LAB     1700   74 69  290/  3/  8 1011.6
30 SE NEW RIVER  1700   71 76  260/  6/ 10 1012.5    2/10   2/10
5 SE WRIGHTSVLE  1700   70 74  250/  6/  6   N/A
225 S CAPE HAT   1635   74 80  190/  6/  8 1014.6    3/ 8   3/ 8
41 SE CHARLESTON 1700   73 80  310/  6/ 10 1013.5    2/ 8   2/ 8

$$



USA.gov is the U.S. government's official web portal to all federal, state and local government web resources and services.